PEGASUS DEB, 39307

Orbit data source: Space-Track

PEGASUS DEB, 39307 is space debris in LEO originally from a launch on Thu, 19 May 1994 UTC launched from the Air Force Western Test Range (AFWTR). Debris objects in space refer to the collection of defunct objects orbiting the Earth. Examples of debris include non-operational satellites, rocket bodies, and fragments generated from explosions, collisions, or faulty payload assembly.

Loading next visibility...
Identifier
39307, 1994-029AES
Orbit
LEO
Country
Flag of USUS
Related business
Manufacturer
Unknown
Mission
Spacecraft
Bus & Motor
Unknown
Mass
Unknown
Launch date (UTC)
1994-05-19 (32 years ago)
Launch vehicle
Unknown
Launch site
Air Force Western Test Range (AFWTR)
Object type
Payload
Rocket body
Debris
Shape & HBR
Unknown shape, 0.1 m
Radar Cross Section
Small (<0.1 m²)

Expand to show TLE details & history
Last TLE update: 2 days ago

TLE from 2 days ago
0 PEGASUS DEB
1 39307U 94029AES 26118.18107460  .00054941  00000-0  16210-2 0  9996
2 39307  81.9387 279.2262 0068525 280.0850  79.2663 15.32403498775943
Epoch: 2026-04-28T04:20Z
TLE epoch observation values (Epoch: 2026-04-28T04:20:44.845Z)
Latitude
-0.00008°
Longitude
-2.12074°
Altitude
463.302 km
Speed
7.64 km/s
True Right ascension
18h 36m 54s
True Declination
0° 00' 00"
Sunlit
Object was in full shadow at epoch
Visualization orbit readout
Latitude
Unknown
Longitude
Unknown
Altitude
Unknown
Speed
Unknown
Apparent Right ascension
Unknown
Apparent Declination
Unknown
Sunlit
N/A
Visualization observer readout
Local Sidereal Time
09:30:49
Azimuth
Unknown
Elevation
Unknown
Doppler factor
Unknown
Orbital elements
Apogee altitude
512.519 km
Perigee altitude
418.725 km
Semi-major axis
6,843.759 km
Eccentricity
0.00685
Inclination
81.9387°
RAAN
279.2262°
Arg. of periapsis
280.085°
True anomaly
80.03901°
Mean anomaly
79.2663°
Eccentric anomaly
79.65253°
Mean motion
3.83355 °/min
Orbital period
93.91 mins
BSTAR
0.001621
Loading maneuver chart data...
Computing Atmospheric mass density...

Documentation

Showing up to 5 results
|